Погода в Дюпсе

Россия / Республика Саха (Якутия)     63°01′20″N   130°43′11″E
темп.,
°C
ветер,
м/с
пор.,
м/с
влажн.,
%
обл.,
%
осадки,
мм/ч
давл.,
гПа
погр.,
м
27 февраля, сб
сб2700:00−34в239820 0.0 103428
03:00−35в239810 0.0 103234
06:00−35в369727 0.0 103296
09:00−33в359640 0.0 1030178
12:00−27всв359318 0.0 1029309
15:00−25всв369244 0.0 1025368
18:00−28всв239695 0.0 102450
21:00−29всв249597 0.0 1022123
28 февраля, вс
вс2800:00−29св2294100 0.0 101935
03:00−29ссв1289100 0.0 101719
06:00−29сз2290100 0.0 101721
09:00−27сз2392100 0.0 1017125
12:00−24з2493100 0.0 1018304
15:00−23зсз3593100 0.0 1019474
18:00−28зсз2297100 0.0 102120
21:00−29з2798100 0.0 1023301
1 марта, пн
пн100:00−29з2698100 0.1 1023399
03:00−29зюз2698100 0.2 1023411
06:00−29зюз2698100 0.1 1024455
09:00−29з2495100 0.1 1024455
12:00−27зюз2389100 0.1 1024612
15:00−27з2389100 0.1 1024702
18:00−28з1198100 0.1 102619
21:00−29зюз129999 0.1 102623
2 марта, вт
вт200:00−29зюз129999 0.1 102546
03:00−30зюз229999 0.1 102557
06:00−31юз229997 0.0 102631
09:00−32юз239997 0.1 102690
12:00−28зюз228999 0.0 1025475
15:00−27з2289100 0.0 1025666
18:00−28з1298100 0.1 102532
21:00−30з1199100 0.1 102619
3 марта, ср
ср300:00−30з1199100 0.1 102519
03:00−30сз1199100 0.2 102519
06:00−30сз1198100 0.1 102419
09:00−29зсз1197100 0.1 1023130
12:00−27зсз1290100 0.1 1022452
15:00−27зсз2291100 0.1 1020552
18:00−29зсз2398100 0.1 1019101
21:00−30з2599100 0.1 1018179